Regional Weather Roundup
Issued by NWS

Home | Current Version | Previous Version | Text Only | Print | Product List | Glossary On
Versions: 1 2 3 4 5 6 7 8 9 10 11 12 13 14 15 16 17 18 19 20 21 22 23 24 25 26 27 28 29 30 31 32 33 34 35 36 37 38 39 40 41 42 43 44 45 46 47 48 49 50
000
ASHW40 PHFO 302232
RWRHI

WEATHER ROUNDUP FOR HAWAII
NATIONAL WEATHER SERVICE HONOLULU HI
1200 PM HST SAT JUL 30 2016

THIS IS AN AUTOMATED REPORT THAT HAS NOT BEEN QUALITY CONTROLLED.

NOTE..."FAIR" INDICATES FEW OR NO CLOUDS BELOW 12,000 FEET WITH NO
SIGNIFICANT WEATHER AND/OR OBSTRUCTIONS TO VISIBILITY.

* - THESE SITES REPORT LIMITED FIELDS

HIZ001>004-302300-
KAUAI-NIIHAU-

CITY           SKY/WX    TMP DP  RH WIND       PRES   REMARKS
LIHUE APT      MOSUNNY   84  73  69 NE15      30.04F HX  90
PORT ALLEN*      N/A     86 N/A N/A E21G29      N/A
POIPU*           N/A     86 N/A N/A E9G20       N/A
PRINCEVILLE*     N/A     79 N/A N/A E13G18      N/A
KOKOLE POINT*  NOT AVBL
MOLOAA DAIRY*    N/A     84  73  70 E5G13       N/A  HX  91
WAIMEA HTS*    NOT AVBL
PUU OPAE*      NOT AVBL
PUU LUA*       NOT AVBL
MAKAHA RIDGE*    N/A     79  68  69 W2G8        N/A
$$

HIZ005>011-302300-
OAHU-

CITY           SKY/WX    TMP DP  RH WIND       PRES   REMARKS
HONOLULU       MOSUNNY   87  66  49 NE13      29.99F
KALAELOA       SUNNY     88  66  48 NE10G18   30.00F HX  90
KANEOHE MCB    MOSUNNY   83  72  69 NE10G17   29.99S
WHEELER FIELD  FAIR      81  69  66 E12       30.03S
BELLOWS*         N/A    N/A N/A N/A NE15        N/A
KAHUKU*          N/A    N/A N/A N/A VRB1        N/A
WHEELER*       NOT AVBL
WAIANAE HARBOR NOT AVBL
DILLINGHAM*      N/A     70  50  49 MISG        N/A
KAHUKU TRN*      N/A    N/A N/A N/A W8G21       N/A
KAWAILOA*        N/A     75  68  78 E12G20      N/A
KII*             N/A     82  72  69 E14G20      N/A
MAKUA RANGE*     N/A     84  68  58 W13G23      N/A
OAHU FOREST NW NOT AVBL
SCHOFIELD BRK*   N/A     81  68  65 MISG        N/A
SCHOFIELD S*   NOT AVBL
WAIANAE VLY*   NOT AVBL
KUAOKALA*      NOT AVBL
HONOULIUULI*   NOT AVBL
MOKUOLOE IS*   NOT AVBL
PALEHUA*       NOT AVBL
WAIAWA PHB*    NOT AVBL
$$

HIZ012>013-302300-
MOLOKAI-

CITY           SKY/WX    TMP DP  RH WIND       PRES   REMARKS
MOLOKAI AIRPT  MOSUNNY   84  67  56 NE20G30   30.00F
KALAUPAPA      NOT AVBL
MAKAPULAPAI*     N/A     84  70  61 E17G25      N/A
MOLOKAI 1*     NOT AVBL
PUU ALII*        N/A     67  64  90 VRB3G10     N/A
$$

HIZ016-302300-
KAHOOLAWE-

CITY           SKY/WX    TMP DP  RH WIND       PRES   REMARKS
KAHOOLAWE*       N/A     79 N/A N/A E1          N/A
HAKIOAWA*        N/A     81  70  69 MISG      30.41F
HONOKANAIA*      N/A     86  66  50 NE16G30   29.92F
KANELOA*         N/A     81  66  61 E17G33    30.06S
KEALIALALO*    NOT AVBL
LUA MAKIKA*    NOT AVBL
$$

HIZ014>015-302300-
LANAI-

CITY           SKY/WX    TMP DP  RH WIND       PRES   REMARKS
LANAI CITY     PTSUNNY   81  68  65 NE20      30.03F
LANAI 1*       NOT AVBL
$$

HIZ017>028-302300-
MAUI-

CITY           SKY/WX    TMP DP  RH WIND       PRES   REMARKS
KAHULUI        MOSUNNY   88  70  55 NE23      29.98F HX  93
KAPALUA-W MAUI MOSUNNY   84  66  54 NE15G29   30.00
HANA AIRPORT     N/A     82  70  65 NE6       30.03F
HANA*            N/A     82 N/A N/A NE7         N/A
HALEAKALA SUMM   N/A     57  45  62 NE7G24      N/A
MAALAEA BAY*     N/A     86 N/A N/A VRB21G30    N/A
HALEAKALA*     NOT AVBL
KAUPO GAP*     NOT AVBL
KULA 1*          N/A     63  55  75 W5G10       N/A
$$

HIZ023>026-302300-
BIG ISLAND OF HAWAII COAST AND LOWER SLOPES-

CITY           SKY/WX    TMP DP  RH WIND       PRES   REMARKS
KAILUA KONA    MOSUNNY   87  69  54 SW10      29.94F HX  91
HILO           MOSUNNY   84  68  58 NE9       29.99F
HONOKAA*         N/A     79 N/A N/A VRB1        N/A
KAWAIHAE MWT*    N/A     86 N/A N/A W10G16      N/A
KAWAIHAE*        N/A     82 N/A N/A SW15      29.94S
SOUTH POINT*     N/A     81 N/A N/A NE17G24     N/A
UPOLU AIRPORT*   N/A    N/A N/A N/A NE20G28     N/A
KAMUELA*       MOCLDY    79  63  57 NE20      30.07F
HAKALAU*         N/A     61  56  84 E5G12       N/A
KALOKO-HONOKO*   N/A     88  68  51 SW9       29.94F HX  91
PALI 2*          N/A    N/A N/A N/A SW13G22     N/A
KEALAKOMO*       N/A     84  70  61 E18G24      N/A
KAUPULEHU*     NOT AVBL
KAPAPALA*        N/A     78  66  66 SE5G12      N/A
LOWER KAHUKU*    N/A     70  64  83 E2G9        N/A
PUHE CS*         N/A     88  68  51 W7G15       N/A  HX  91
PUHO CS*         N/A     87  68  53 S5G10       N/A  HX  91
PTA KEAMUKU*     N/A     75  61  60 CALM        N/A
WAIKOLOA*      NOT AVBL
$$

HIZ027>028-302300-
BIG ISLAND OF HAWAII INTERIOR AND SUMMMITS-

CITY           SKY/WX    TMP DP  RH WIND       PRES   REMARKS
BRADSHAW FIELD MOSUNNY   73  55  52 W10G20    30.29F
MK VISITOR CEN   N/A     57  46  67 E3          N/A
MAUNA KEA*       N/A     50  -2  11 NW14        N/A
MAUNA LOA*       N/A     57  36  44 MISG        N/A
MAUNA LOA 1*   NOT AVBL
PTA KIPUKA*      N/A     73  57  56 NW8G17      N/A
PTA RANGE 17*    N/A     73  57  56 W9G20       N/A
PTA WEST*        N/A     79  63  57 W14G24      N/A
NENE CABIN*      N/A     57  50  77 E7G14       N/A
AHUMOA*        NOT AVBL
PTA PORTABLE*  NOT AVBL
PUU MALI*        N/A     63  55  77 NE24G32     N/A
$$

HIC003-302300-
NORTHWEST ISLANDS-

CITY           SKY/WX    TMP DP  RH WIND       PRES   REMARKS
MIDWAY ISLAND  SUNNY     82  73  74 SE12      30.18R
MIDWAY NOS*      N/A     81 N/A N/A MISG      30.16S
FRENCH FRIGATE NOT AVBL
$$

PHZ110>124-180-302300-
BUOY REPORTS

STATION/POSITION TIME  TEMP    WIND        PRES    WAVE   SWELL
                       AIR SEA DIR/SP/G            HT/PER HT/DIR
                 (UTC) (F)     (DEG/KT/KT) (MB)    (FT/S) (FT/D)
BUOY 51001       NOT AVBL
BUOY 51101       2150   78 79   60/ 19/ 23 1018.6S   8/ 8   5/100
BUOY 51100       NOT AVBL
BUOY 51002       2150   82 82   70/ 16/ 17 1014.9F   8/ 9   7
BUOY 51003       2150   79 82   30/ 10/ 12 1014.8F   6/ 8   7/ 70
BUOY 51004       2150   80 81   70/ 12/ 16 1013.8F   5/ 8   5/ 70
BARBERS PT BUOY  NOT AVBL
WAIMEA BAY BUOY  2204      80                N/A     6/ 8   2/ 40
KAILUA BAY BUOY  2211      80                N/A     7/10   2/ 60
LANAI BUOY       2115      81                N/A     2/13   2/200
BARBERS PT 2     NOT AVBL
PAUWELA MAUI     2209      80                N/A     6/ 8   2/ 50
HILO             2212      81                N/A     6/ 9   2/ 70
KANEOHE BAY BUOY 2206      79                N/A     6/ 9   2/ 50
HANALEI KAUAI    NOT AVBL
KAHULUI HARBOR   2200   79 81                N/A
HONOLULU HARBOR  2200   83 80                N/A
KILO NALU        NOT AVBL
HILO HARBOR      2200   84 80                N/A
MOKUOLOE         2100   80 82   60/ 13/ 16 1016.4F
NAWILIWILI       2200      81                N/A
WHOTS BUOY       NOT AVBL
BUOY 51028       NOT AVBL
$$

......................KEY........................................
  SKY/WX - SKY CONDITIONS/PRESENT WEATHER
  TMP    - TEMPERATURE IN FAHRENHEIT
  DWPT   - DEWPOINT IN FAHRENHEIT
  RH     - RELATIVE HUMIDITY IN PERCENT
  WIND   - DIRECTION AND SPEED /MPH FOR ISLANDS...KTS FOR BUOYS/
  PRES   - MEAN SEA LEVEL PRESSURE IN INCHES OF HG
  VSB    - VISIBILITY IN MILES
  HX     - HEAT INDEX
  WCI    - WIND CHILL INDEX
  VRB    - VARIABLE WIND DIRECTION
  N/A    - NOT AVAILABLE




USA.gov is the U.S. government's official web portal to all federal, state and local government web resources and services.